Regional Weather Roundup
Issued by NWS Wakefield, VA

Home | Current Version | Previous Version | Text Only | Print | Product List | Glossary Off
Versions: 1 2 3 4 5 6 7 8 9 10 11 12 13 14 15 16 17 18 19 20 21 22 23 24 25 26 27 28

000
ASUS41 KAKQ 112115
RWRAKQ

REGIONAL WEATHER ROUNDUP
NATIONAL WEATHER SERVICE WAKEFIELD VA
400 PM EST MON DEC 11 2017

Note: "fair" indicates few or no clouds below 12,000 feet with no
significant weather and/or obstructions to visibility. * = Denotes
station may not report precipitation (e.g., rain,snow,etc.),
thunder or fog.

VAZ042-051-052>054-056-112200-
NORTHERN VIRGINIA

CITY           SKY/WX    TMP DP  RH WIND       PRES   REMARKS
WASH NATIONAL  PTCLDY    47  28  47 S7        30.00S
DULLES         MOCLDY    46  26  45 S8        29.98R
FORT BELVOIR   CLEAR     48  24  38 S5        30.00R
QUANTICO       PTCLDY    48  34  58 S10       30.01S
FREDERICKSBRG* CLEAR     50  27  41 S9        29.99S
STAFFORD*      CLEAR     48  23  37 S6        30.02S
WARRENTON      CLEAR     49  19  30 SW3       29.97S
CULPEPER*      CLEAR     49  22  34 S7        29.97F
MANASSAS*      CLEAR     48  25  40 SW5       29.99R
LEESBURG*      MOCLDY    46  28  49 S5        29.97F
WINCHESTER     CLOUDY    43  25  49 S5        29.94S
FRONT ROYAL*   CLOUDY    45  25  45 S5        29.93F
LURAY*         CLOUDY    46  27  46 SW6       29.94F
$$

VAZ048-049-060>072-079>083-112200-
CENTRAL AND SOUTH CENTRAL VIRGINIA

CITY           SKY/WX    TMP DP  RH WIND       PRES   REMARKS
RICHMOND       PTCLDY    47  31  53 S7        30.02S
CHESTERFIELD*  NOT AVBL
PETERSBURG*    CLEAR     48  27  43 CALM      30.02F
HANOVER        CLEAR     49  26  41 S6        30.01F
TAPPAHANNOCK*    N/A    N/A N/A N/A MISG        N/A
QUINTON*       FAIR      48  26  42 MISG      30.01F
CHARLOTTSVILLE CLEAR     50  24  36 S8        29.96S
GORDONSVILLE*  CLEAR     49  25  39 S6        29.96F
ORANGE*        CLEAR     46  25  42 CALM      29.97S
LOUISA*        CLEAR     48  25  39 S7        30.01F
BUMPASS*       FAIR      48  22  36 S6        29.99F
FARMVILLE*     CLEAR     49  31  49 S8        29.98F
CREWE*         FAIR      48  28  46 CALM      30.00F
FORT PICKETT*  NOT AVBL
CHASE CITY*    FAIR      48  28  46 CALM      30.01S
CLARKSVILLE*   FAIR      50  30  46 SW5       30.01S
SOUTH HILL*    CLEAR     49  30  48 SW3       30.06F
LAWRENCEVILLE* FAIR      50  28  43 S3        30.02S
EMPORIA*       CLEAR     50  28  43 S5        30.04S
$$

VAZ088>098-112200-
SOUTHEAST VIRGINIA

CITY           SKY/WX    TMP DP  RH WIND       PRES   REMARKS
NORFOLK        CLEAR     47  31  53 NE7       30.03S
VIRGINIA BEACH CLEAR     45  28  51 E6        30.04S
NORFOLK NAVAL  CLEAR     48  31  51 E7        30.04F
WEST POINT*    CLEAR    N/A N/A N/A SE5       30.05R
SALUDA*        FAIR      45  32  62 E6        30.03S
NEWPORT NEWS   CLEAR     48  26  42 SW6       30.04S
LANGLEY AFB    CLEAR     47  31  55 SE5       30.03F
FORT EUSTIS    CLEAR     47  26  42 SE6       30.01S
WILLIAMSBURG*  CLEAR     52  30  43 CALM      30.04S
HR EXEC AP*    FAIR      50  27  40 SW6       30.04S
FRANKLIN*      CLEAR     49  28  42 SW5       30.04F
US460-WAKEFLD  CLEAR     49  28  44 VRB7      30.03F
$$

VAZ020-022-025-037-045-112200-
WEST CENTRAL AND SOUTHWEST VIRGINIA

CITY           SKY/WX    TMP DP  RH WIND       PRES   REMARKS
STAUNTON*      CLEAR     46  25  43 S9        29.94F
WAYNESBORO*    PTCLDY    47  24  40 SW6       29.94R
HOT SPRINGS VA MOCLDY    39  20  47 SW6       29.87F
LYNCHBURG      CLEAR     48  26  42 S9        29.96F
DANVILLE       CLEAR     48  31  51 SW5       29.99F
SOUTH BOSTON*  FAIR      50  28  43 S5        30.01F
MARTINSVILLE   CLEAR     49  26  41 CALM      30.00S
ROANOKE        CLEAR     51  26  37 S5        29.96F
BLACKSBURG     CLEAR     49  26  40 SW5       29.96S
DUBLIN*        SUNNY     49  25  37 SW13      29.94S
MARION*        SUNNY     47  23  38 W12       29.95F
HILLSVILLE*    SUNNY     46  27  47 S3        29.92S
RICHLANDS*     FAIR      47   5  18 SW6       29.91F
WISE*          SUNNY     46  28  49 S13       29.91F
ABINGDON*      SUNNY     50  29  45 W6        29.94F
$$

MDZ021>025-VAZ099-100-112200-
SOUTHERN MARYLAND AND THE DELMARVA PENINSULA

CITY           SKY/WX    TMP DP  RH WIND       PRES   REMARKS
PATUXENT RIVER PTCLDY    44  32  62 SE10      30.03R
BAY BRIDGE APT CLEAR     45  30  57 S10       30.00F
LEONARDTOWN    CLEAR     45  27  49 S5        30.04S
DOVER          PTCLDY    44  29  56 SW5       30.01R
GEORGETOWN     CLEAR     43  26  51 SW8       30.04R
EASTON         CLEAR     46  25  42 SW8       30.05R
CAMBRIDGE      CLEAR     43  27  52 S6        30.03R
SALISBURY      CLEAR     43  28  55 S5        30.03S
OCEAN CITY     CLEAR     43  28  55 S5        30.04R
WALLOPS ISLAND CLEAR     44  29  55 S8        30.05R
ACCOMACK*      CLEAR     45  28  52 S7        30.05R
$$

NCZ012>017-030>032-112200-
NORTH CENTRAL AND EASTERN NORTH CAROLINA

CITY           SKY/WX    TMP DP  RH WIND       PRES   REMARKS
ROANOKE RAPIDS FAIR      52  30  43 CALM      30.03S
RALEIGH        CLEAR     52  30  43 SW7       30.02F
ELIZABETH CITY CLEAR     48  37  65 SE9       30.05S
AHOSKIE*       CLEAR     48  31  50 CALM      30.04S
EDENTON*       CLEAR     52  32  46 CALM      30.05S
CURRITUCK*     CLEAR     47  33  57 E3        30.06R
KILL DEVIL HLS CLEAR     46  32  57 CALM      30.05S
MANTEO         CLEAR     46  28  49 NE3       30.07S
CAPE HATTERAS  CLEAR     50  32  50 CALM      30.07R
TARBORO*       NOT AVBL
GOLDSBORO      CLEAR     53  28  38 SW6       30.03S
WASHINGTON     CLEAR     53  30  42 S3        30.05F
GREENVILLE     CLEAR     54  32  43 SW6       30.06S
NEW BERN       CLEAR     53  30  41 SW3       30.06S
WILMINGTON     SUNNY     53  22  29 E6        30.06F
$$

VAZ048-112200-
ELSEWHERE

CITY           SKY/WX    TMP DP  RH WIND       PRES   REMARKS
HARRISBURG PA  CLOUDY    41  24  51 CALM      29.96F
BALTIMORE      PTCLDY    45  24  43 SW5       29.99R
ANNAPOLIS      CLEAR     43  29  57 S8        30.01S
ANDREWS AFB    CLEAR     46  24  41 S3        29.98F
PHILADELPHIA   MOCLDY    42  21  43 VRB7      30.01S
HENDERSON NC   CLEAR     49  26  41 SW6       30.01F
GREENSBORO     SUNNY     50  30  46 CALM      29.96F
ROCKY MOUNT    CLEAR     53  32  44 S8        30.04S
$$

VAZ100-112200-
MARINE

STATION/POSITION TIME  TEMP    WIND        PRES    WAVE   SWELL
                       AIR SEA DIR/SP/G            HT/PER HT/PER
                 (UTC) (F)     (DEG/KT/KT) (MB)    (FT/S) (FT/S)
BRANDYWINE LGT   2042   44      10/  3/  5 1017.0R
CAPE MAY NJ      2036   43 44  360/  2/  4 1016.3R
LEWES DE         2042   45 46  230/  3/  5 1016.6R
15NM E FENWICK I 2050   44 54  220/  6/  8 1017.5R   2/12   2/12
OCEAN-CITY-INLET 2042   44 49  230/  8/  9 1017.5R
WACHAPREAGUE VA  2042   45 45  180/  6/  8 1017.4R
THOMAS POINT MD  2100   44 48  160/ 12/ 14   N/A
GOOSES REEF MD   2100   45 48  170/ 14/ 17 1016.7    1
COVE POINT MD    2042   43     180/ 12/ 13 1017.4R
SOLOMONS ISLAND  2042   44 48  130/ 11/ 12 1016.5R
BISHOPS HEAD MD  2042   42 42  190/  7/  9 1017.6R
PINEY POINT MD   2048          160/  8/  9   N/A
POTOMAC MD       2100   45 49  150/ 10/ 12 1016.5
CAMBRIDGE MD     2042   44 45              1017.4R
LEWISETTA VA     2042   44 45  120/  7/  8 1017.0R
RAPPAHANNOCK LGT 2042          220/  3/  4 1018.0R
STINGRAY PT      2100   44 49  190/  6/  8 1017.6    1
YORK RVR RNG VA  2042   44     150/  9/ 10 1017.8S
YORKTOWN VA      2042   46 50   90/  8/ 10 1016.8R
JAMESTOWN VA     2100      48  210/  6/  8   N/A     0
DOMINION TERM VA 2042   47     130/  5/  5 1017.3R
KIPTOPEKE VA     2042      49  160/  6/  8   N/A
CAPE HENRY VA    2042   45      90/  5/  6   N/A
WILLOUBY STN VA  2042   45      90/  6/  7 1017.0F
S CRANEY ISL VA  2042   50     150/  3/  6 1017.1R
CAPE HENRY BUOY  2100      52                N/A     1/10
1ST LANDING BUOY 2100   45 50  110/  6/  8 1017.3    1
CAPE CHARLES BUO 2051      54                N/A     1/11
64NM E OF VA BCH 2050   48 60  340/  4/  6 1018.0S   3/ 4   2/10
DUCK PIER NC     2042   48 55  140/  4/  6 1017.5R
44100 DUCK FRF   2045      56                N/A     2/ 9
44056 DUCK FRF   2030      54                N/A     1/10
OREGON INLET NC  2042   47 46   40/  4/  5 1017.7F
HATTERAS NC      2042   50 51  320/  1/  2 1017.9R
DIAMOND SHLS NC  2050   52 75  290/  6/ 10 1018.2F   3/ 6   3/ 6
CAPE LOOKOUT NC  2100          210/  3/  3 1018.1F
$$




USA.gov is the U.S. government's official web portal to all federal, state and local government web resources and services.